Regional Weather Roundup
Issued by NWS

Home | Current Version | Previous Version | Graphics & Text | Print | Product List | Glossary On
Versions: 1 2 3 4 5 6 7 8 9 10 11 12 13 14 15 16 17 18 19 20 21 22 23 24 25 26 27 28 29 30 31 32 33 34 35 36 37 38 39 40 41 42 43 44 45 46 47 48 49 50
000
ASUS43 KMKX 080311
RWRWI

WISCONSIN REGIONAL WEATHER ROUNDUP
NATIONAL WEATHER SERVICE MILWAUKEE/SULLIVAN WI
900 PM CST SUN FEB 07 2016

NOTE: "FAIR" INDICATES FEW OR NO CLOUDS BELOW 12,000 FEET WITH NO
SIGNIFICANT WEATHER AND/OR OBSTRUCTIONS TO VISIBILITY.

WIZ001-002-006>008-014>016-023>028-080400-
NORTHWEST WISCONSIN

CITY           SKY/WX    TMP DP  RH WIND       PRES   REMARKS
SUPERIOR ARPT  CLOUDY    26  19  77 NW13G22   29.65R WCI  15
ASHLAND        LGT SNOW  30  27  88 W12       29.55S FOG     WCI  20
HAYWARD        LGT SNOW  26  22  84 VRB7G18   29.59R FOG     WCI  18
SIREN          LGT SNOW  22  18  83 NW14      29.67R WCI  10
CUMBERLAND     LGT SNOW  23  19  86 NW17      29.63R WCI   9
RICE LAKE      LGT SNOW  26  23  87 W12G18    29.64R WCI  16
CHETEK         LGT SNOW  26  23  89 W10G16    29.63R WCI  16
LADYSMITH      LGT SNOW  30  27  91 NW15      29.59R WCI  19
EAU CLAIRE     LGT SNOW  28  23  81 W12G23    29.64R WCI  18
MENOMONIE      LGT SNOW  27  23  83 W14       29.67R WCI  16
NEW RICHMOND   LGT SNOW  22  17  83 W17G23    29.69R WCI   7
OSCEOLA        FLURRIES  22  16  79 W16G22    29.74R WCI   8
$$

WIZ003>005-009-010-017-018-080400-
NORTH CENTRAL WISCONSIN

CITY           SKY/WX    TMP DP  RH WIND       PRES   REMARKS
MANITOWISH WTR LGT SNOW  31  31 100 SW6       29.49F WCI  25
ARBOR VITAE    FLURRIES  32  30  94 S5        29.50F WCI  27
WOODRUFF       FLURRIES  32  30  94 S5        29.50F WCI  27
RHINELANDER    LGT SNOW  32  29  88 SW6       29.52F FOG     WCI  26
EAGLE RIVER    LGT SNOW  31  30  96 SW5       29.51S WCI  27
LAND O LAKES   FLURRIES  32  32  99 CALM      29.51S
PHILLIPS       LGT SNOW  31  30  99 NW7       29.52S WCI  24
TOMAHAWK       LGT SNOW  31  28  91 CALM      29.53F
MEDFORD        LGT SNOW  32  31  98 SW8       29.53F WCI  24
MERRILL        LGT SNOW  33  30  91 SW6       29.56S WCI  27
$$

WIZ029-030-035-036-043>047-080400-
CENTRAL WISCONSIN

CITY           SKY/WX    TMP DP  RH WIND       PRES   REMARKS
WAUSAU         CLOUDY    36  26  67 SW9       29.54F WCI  29
MOSINEE        CLOUDY    34  28  80 SW12      29.57F WCI  25
MARSHFIELD     CLOUDY    35  27  72 SW12      29.56F WCI  27
STEVENS POINT  CLOUDY    34  25  69 SW7       29.58F WCI  28
WAUPACA        CLOUDY    38  28  67 S7        29.60F WCI  32
WAUTOMA        CLOUDY    37  27  68 SW9       29.62F WCI  30
WISC RAPIDS    CLOUDY    36  25  64 W8        29.60F WCI  30
CAMP DOUGLAS   MOCLDY    35  35 100 SW10      29.61F WCI  28
$$

WIZ011>013-019>022-031-037>040-048>050-080400-
NORTHEAST WISCONSIN

CITY           SKY/WX    TMP DP  RH WIND       PRES   REMARKS
ANTIGO         MOCLDY    32  27  81 SW7       29.54F WCI  26
SHAWANO        CLOUDY    39  28  64 SW3       29.58S
OCONTO         CLOUDY    37  30  77 SW5       29.59S WCI  33
STURGEON BAY   CLOUDY    36  28  75 S8        29.61F WCI  29
GREEN BAY      CLOUDY    37  28  70 S6        29.60F WCI  32
MANITOWOC      CLOUDY    38  27  64 W7        29.62F WCI  33
APPLETON       MOCLDY    36  25  64 S9        29.58F WCI  29
CLINTONVILLE   CLOUDY    36  28  75 SW7       29.59S WCI  30
OSHKOSH        CLOUDY    36  26  67 VRB6      29.61F WCI  31
$$

WIZ032>034-041-042-053>061-080400-
SOUTHWEST WISCONSIN

CITY           SKY/WX    TMP DP  RH WIND       PRES   REMARKS
LA CROSSE      CLOUDY    36  30  79 W12       29.64F WCI  28
SPARTA         CLOUDY    35  31  84 W6        29.63F WCI  30
VIROQUA        CLOUDY    33  32  93 W9        29.63F WCI  26
BOSCOBEL       CLOUDY    37  31  78 SW10      29.68F WCI  30
PRAIRIE DU CHI CLOUDY    35  29  79 W12       29.69F WCI  27
PLATTEVILLE    CLOUDY    34  30  85 SW13      29.69F WCI  25
$$

WIZ056-057-062-063-064-067-068-080400-
SOUTH CENTRAL WISCONSIN

CITY           SKY/WX    TMP DP  RH WIND       PRES   REMARKS
REEDSBURG      CLOUDY    35  28  76 SW8       29.64F WCI  29
BARABOO/DELLS  CLOUDY    35  27  74 SW10      29.63F WCI  27
LONE ROCK      CLOUDY    36  28  73 W8        29.67F WCI  30
MINERAL POINT  CLOUDY    34  30  86 W10       29.67F WCI  26
MADISON        MOCLDY    33  27  78 VRB6      29.66F WCI  28
MIDDLETON      MOCLDY    35  28  78 SW10      29.66F WCI  27
WATERTOWN      CLEAR     32  28  85 SW7       29.66F WCI  26
MONROE         CLEAR     32  30  93 SW13      29.68F WCI  22
JANESVILLE     PTCLDY    36  28  75 MISG      29.70F
$$

WIZ051-052-058>065-066-070>072-080400-
SOUTHEAST WISCONSIN

CITY           SKY/WX    TMP DP  RH WIND       PRES   REMARKS
MILWAUKEE      PTCLDY    36  26  67 W10       29.67F WCI  28
WAUKESHA       CLEAR     32  27  80 SW10      29.67F WCI  24
MILWAUKEE/TIMM CLEAR     34  27  75 SW12      29.67S WCI  25
RACINE         CLEAR     36  26  67 W13       29.69F WCI  27
BURLINGTON     CLEAR     32  27  80 W9G16     29.69S WCI  24
KENOSHA        CLEAR     35  27  72 W14       29.69S WCI  26
FOND DU LAC    CLOUDY    35  26  69 SW7       29.63F WCI  29
SHEBOYGAN      PTCLDY    32  26  78 SW8       29.63F WCI  25
WEST BEND      PTCLDY    34  27  75 SW7       29.64F WCI  28
JUNEAU         CLOUDY    32  27  81 SW8       29.66F WCI  25
$$

LSZ147-162-080400-
LAKE SUPERIOR

STATION/POSITION TIME  TEMP    WIND        PRES    WAVE
                       AIR SEA DIR/SP/G            HT/PER
                 (UTC) (F)     (DEG/KT/KT) (MB)    (FT/S)
DEVILS ISLAND    0300   29      40/ 29/ 31 1001.6R
PORT WING        0224   31     320/ 19/ 25 1002.0R
SAXON HARBOR     0200   33                 1000.0S
$$

LMZ867-665-643>646-080400-
LAKE MICHIGAN

STATION/POSITION TIME  TEMP    WIND        PRES    WAVE
                       AIR SEA DIR/SP/G            HT/PER
                 (UTC) (F)     (DEG/KT/KT) (MB)    (FT/S)
CHAMBERS ISLAND  0200   35     170/  4/  8 1002.4F
NORTHPORT PIER   0200   37      CALM  /  4 1002.4S
KEWAUNEE LAKESHO 0200   38                 1002.3F
SHEBOYGAN LAKESH 0300   36     230/  7/  8 1004.3F
PORT WASHINGTON  0200   37     250/  6/ 10 1005.4F
MILWAUKEE LAKESH 0210   38     250/ 13/ 15   N/A
KENOSHA   LAKESH 0300   37     250/ 15/ 20 1005.4F
$$

TC  - TEMPERATURE IN CELSIUS
VSB - VISIBILITY IN STATUTE MILES
WCI - WIND CHILL INDEX
HX  - HEAT INDEX




USA.gov is the U.S. government's official web portal to all federal, state and local government web resources and services.